www.pogodaiklimat.ru

Погода и климат >> Архив погоды >> Сербия >> Смедеревска-Паланка


ПОГОДА в Смедеревска-Паланке

  • Прогноз погоды в Смедеревска-Паланке
  • Монитор погоды в Смедеревска-Паланке

АРХИВ ПОГОДЫ в Смедеревска-Паланке

Время (UTC), дата Ветер
(напр.,м/с)
 
Видим.   Явления Облачность Т
(С)
Тd
(С)
f
(%)
Тe
(С)
Тes
(С)
Комфортность P
(гПа)
Po
(гПа)
Тmin
(С)
Tmax
(С)
R
(мм)
R24
(мм)
S
(см)
01 13.08 штиль 0 35 км ясно +19.9 +15.6 76 +22 +22 комфорт 1011.8 997.8
02 13.08 В 1 35 км ясно +18.9 +16.1 84 +21 +21 комфорт 1011.5 997.4
03 13.08 штиль 0 35 км ясно +17.8 +15.4 86 +18 +18 1011.7 997.6
04 13.08 В 1 40 км ясно +17.9 +15.7 87 +19 +19 1011.5 997.4
05 13.08 В 1 40 км ясно +20.6 +16.2 76 +25 +26 комфорт 1011.6 997.6
06 13.08 Ю 2 40 км ясно +25.8 +16.7 57 +29 +33 душно 1011.3 997.5 +17.0
07 13.08 Ю 2 50 км ясно +28.0 +15.3 46 +31 +38 душно 1011.2 997.6
08 13.08 Ю 2 50 км ясно +30.1 +14.9 40 +32 +44 жарко 1011.3 997.8
09 13.08 Ю 2 60 км ясно +32.7 +16.7 38 +36 +50 очень
душно
1011.3 997.9
10 13.08 ЮВ 2 60 км ясно +33.5 +15.4 34 +36 +52 опасность
солнечного
удара
1011.1 997.8
11 13.08 ЮВ 2 60 км ясно +34.4 +15.9 33 +37 +53 опасность
солнечного
удара
1010.5 997.2
12 13.08 Ю 2 60 км ясно +35.1 +15.9 32 +37 +52 опасность
солнечного
удара
1010.1 996.8
13 13.08 В 1 60 км ясно +36.5 +15.0 28 +38 +52 опасность
солнечного
удара
1009.5 996.3
14 13.08 ЮВ 1 60 км ясно +36.6 +14.6 27 +38 +47 очень
душно
1009.1 995.9
15 13.08 ЮВ 2 60 км 1/0
[Ci sp]
+36.5 +14.6 27 +38 +42 очень
душно
1008.8 995.6
16 13.08 ЮВ 1 60 км 5/0
[Cs]
+35.0 +15.3 31 +37 +39 очень
душно
1008.7 995.5
17 13.08 ЮВ 1 40 км 8/0
[Ac lent Cs]
+32.6 +15.8 36 +35 +35 душно 1008.8 995.4
18 13.08 С 1 30 км 9/0
[Ac lent Cs]
+29.0 +19.8 58 +35 +35 очень
душно
1009.5 996.0 +36.6
19 13.08 СЗ 2 30 км 9/0
[Ac lent Cs]
+26.6 +20.3 68 +33 +33 очень
душно
1010.6 996.9
20 13.08 СЗ 2 30 км 9/0
[Ac lent Cs]
+26.3 +20.5 70 +33 +33 очень
душно
1011.0 997.3
21 13.08 СЗ 2 30 км 9/4 600 м
[Cu Sc Ac As Cs]
+25.2 +20.6 76 +31 +31 очень
душно
1011.3 997.5
22 13.08 штиль 0 30 км 9/4 600 м
[Cu Sc Ac lent Cs]
+24.9 +20.1 75 +31 +31 очень
душно
1010.6 996.8
23 13.08 штиль 0 40 км 9/0
[Ac lent Cs]
+23.2 +19.0 77 +29 +29 душно 1010.4 996.6
00 14.08 С 2 40 км 3/0
[Ac lent Ci fib]
+22.4 +18.0 76 +27 +27 душно 1010.6 996.7
01 14.08 штиль 0 40 км 1/0
[Ci fib]
+21.3 +17.5 79 +25 +25 комфорт 1010.6 996.6
03 14.08 штиль 0 40 км ясно +18.6 +17.3 92 +19 +19 1011.0 996.9
06 14.08 С 3 30 км 9/1 1000 м
[Cu hum Ac As]
+21.3 +17.3 78 +25 +26 комфорт 1011.6 997.7 +17.7
07 14.08 С 4 30 км 9/6 1000 м
[Sc Ac As]
+21.4 +17.1 76 +25 +26 комфорт 1012.8 998.8
08 14.08 С 3 25 км 10/10 1000 м
[Sc]
+20.8 +16.9 78 +25 +25 комфорт 1013.7 999.7
09 14.08 С 3 30 км 10/10 600 м
[Cu Sc]
+19.2 +16.7 85 +21 +21 комфорт 1014.9 1000.8
10 14.08 С 3 30 км 10/10 600 м
[Cu Sc]
+20.0 +16.1 78 +23 +23 комфорт 1015.0 1000.9
11 14.08 С 3 30 км 10/10 1000 м
[Sc]
+20.1 +16.8 81 +23 +23 комфорт 1014.9 1000.8
12 14.08 С 3 30 км 10/10 600 м
[Cu Sc]
+20.2 +16.5 79 +23 +23 комфорт 1014.5 1000.4
13 14.08 СЗ 3 20 км слаб. дождь 10/10 600 м
[Cu Sc]
+20.7 +17.3 81 +25 +25 комфорт 1014.2 1000.2
14 14.08 С 2 20 км в посл. час дождь 10/10 600 м
[Cu Sc]
+21.1 +16.4 75 +25 +25 комфорт 1013.9 999.9
15 14.08 С 3 20 км {дождь} 10/10 600 м
[Cu Sc]
+20.6 +16.2 76 +24 +24 комфорт 1013.8 999.8
16 14.08 С 3 10 км слаб. дождь 10/10 600 м
[Cu Sc]
+18.6 +17.2 92 +20 +20 1014.7 1000.5
17 14.08 С 1 10 км слаб. дождь 10/10 600 м
[Cu Sc]
+18.0 +16.7 92 +19 +19 1015.1 1001.0
18 14.08 С 2 15 км слаб. дождь 10/10 600 м
[Cu Sc]
+17.5 +16.5 94 +18 +18 1015.2 1001.0 +21.5 3
19 14.08 СЗ 3 15 км 10/10 600 м
[Cu Sc]
+17.1 +16.3 95 +17 +17 1016.1 1001.9
20 14.08 С 1 15 км 10/10 600 м
[Cu Sc]
+17.0 +15.9 93 +18 +18 1016.0 1001.8
21 14.08 С 2 18 км 9/9 600 м
[Cu Sc]
+16.8 +16.1 96 +17 +17 1016.0 1001.7
22 14.08 С 2 18 км 10/10 1000 м
[Sc]
+16.7 +15.7 94 +17 +17 1016.2 1001.9
23 14.08 С 1 18 км 9/9 1000 м
[Sc]
+16.5 +15.7 95 +17 +17 1015.9 1001.6
00 15.08 штиль 0 25 км 9/4 1000 м
[Sc Ac As]
+16.5 +15.0 91 +16 +16 1015.9 1001.6
01 15.08 С 2 30 км 10/0
[Ac As]
+16.3 +15.1 93 +16 +16 1015.7 1001.4
02 15.08 С 1 30 км 10/10 1000 м
[Sc]
+16.5 +15.4 93 +17 +17 1015.5 1001.2
03 15.08 С 1 15 км 10/10 1000 м
[Sc]
+16.4 +15.6 95 +17 +17 1015.8 1001.5
04 15.08 С 2 10 км 10/10 1000 м
[Sc]
+16.5 +15.8 96 +17 +17 1015.8 1001.5
05 15.08 СВ 3 12 км слаб. дождь 10/10 600 м
[Cu Sc]
+16.4 +15.1 92 +16 +16 1015.8 1001.5
06 15.08 СВ 2 20 км в посл. час дождь 9/9 600 м
[Cu Sc]
+16.6 +14.0 85 +17 +17 1016.5 1002.2 +15.7 0.2
07 15.08 СВ 2 45 км 9/6 600 м
[Cu Sc Ac trans Ci sp]
+17.4 +12.0 71 +18 +20 1016.4 1002.2
08 15.08 СВ 3 60 км 5/1 600 м
[Cu med, cong Ac As]
+18.4 +10.9 62 +19 +25 1016.3 1002.2
09 15.08 С 3 60 км 4/3 600 м
[Cu med, cong Ac lent]
+20.7 +14.7 68 +24 +31 комфорт 1016.2 1002.1
10 15.08 СВ 3 60 км 3/3 600 м
[Cu med, cong]
+21.5 +10.5 50 +23 +33 комфорт 1015.7 1001.7
11 15.08 СВ 3 60 км 3/3 600 м
[Cu med, cong]
+23.0 +10.1 44 +25 +34 комфорт 1015.3 1001.4
12 15.08 СВ 3 60 км 3/3 600 м
[Cu med, cong]
+24.0 +11.2 45 +25 +34 комфорт 1014.9 1001.0
13 15.08 В 4 60 км 3/3 600 м
[Cu med, cong]
+23.7 +9.1 39 +24 +30 комфорт 1014.5 1000.6
14 15.08 В 3 60 км 3/3 600 м
[Cu med, cong]
+24.4 +10.3 41 +25 +30 комфорт 1014.2 1000.4
15 15.08 СВ 2 60 км 3/3 600 м
[Cu med, cong]
+23.6 +9.4 40 +24 +27 комфорт 1014.2 1000.3
16 15.08 СВ 3 60 км 1/1 1000 м
[Cu hum]
+23.6 +11.5 47 +25 +26 комфорт 1013.9 1000.1
17 15.08 СВ 2 60 км 1/1 1000 м
[Cu hum]
+22.6 +8.0 39 +24 +24 комфорт 1014.1 1000.1
18 15.08 СВ 1 50 км 1/0
[Ac trans]
+20.4 +8.4 46 +23 +23 комфорт 1014.4 1000.3 +24.8
19 15.08 штиль 0 30 км ясно +17.6 +8.9 57 +18 +18 1015.1 1000.9
20 15.08 С 1 30 км ясно +16.0 +9.8 67 +17 +17 1015.6 1001.3
21 15.08 СЗ 1 30 км ясно +14.1 +10.4 78 +14 +14 1015.8 1001.5
22 15.08 С 1 30 км ясно +13.2 +10.7 85 +13 +13 1015.9 1001.5
23 15.08 штиль 0 30 км ясно +12.5 +10.2 86 +12 +12 1016.0 1001.5
00 16.08 штиль 0 25 км ясно +11.5 +9.9 90 +11 +11 1016.0 1001.4
01 16.08 штиль 0 25 км ясно +11.1 +9.4 89 +10 +10 1016.1 1001.6
02 16.08 штиль 0 25 км ясно +11.1 +9.2 88 +10 +10 1016.1 1001.6
03 16.08 штиль 0 25 км ясно +10.5 +9.2 92 +10 +10 1016.2 1001.6
04 16.08 штиль 0 40 км ясно +10.3 +9.4 94 +9 +10 1016.6 1002.0
05 16.08 штиль 0 50 км 1/0
[Ac trans Ci fib]
+11.7 +10.1 90 +11 +13 1016.9 1002.3
06 16.08 С 1 40 км 1/0
[Ac trans Ci fib]
+15.2 +11.9 81 +16 +20 1016.7 1002.4 +9.6
07 16.08 С 1 50 км 1/0
[Ac trans]
+18.3 +12.5 69 +20 +28 1016.6 1002.4
08 16.08 В 1 50 км 1/1 1000 м
[Cu hum Ci fib]
+21.9 +12.9 57 +25 +36 комфорт 1016.5 1002.5
09 16.08 СВ 2 50 км 3/1 1000 м
[Cu hum Ac trans]
+23.5 +11.0 45 +25 +36 комфорт 1016.3 1002.4
10 16.08 В 4 50 км 3/3 1000 м
[Cu hum]
+24.4 +9.8 40 +25 +33 комфорт 1016.0 1002.2
11 16.08 СВ 2 50 км 4/4 1000 м
[Cu hum]
+25.7 +8.7 34 +26 +36 жарко 1015.8 1002.0
12 16.08 СВ 2 50 км 5/5 1000 м
[Cu hum]
+25.4 +7.8 33 +26 +33 жарко 1015.6 1001.8
13 16.08 СВ 2 50 км 5/4 1000 м
[Cu Sc Ac trans]
+25.9 +8.3 33 +26 +32 жарко 1015.3 1001.6
14 16.08 В 2 50 км 5/4 1000 м
[Cu Sc Ac trans]
+25.9 +9.7 36 +27 +31 жарко 1015.2 1001.5
15 16.08 СВ 2 50 км 5/3 1000 м
[Cu Sc Ac trans]
+26.4 +9.1 34 +27 +29 жарко 1015.0 1001.3
16 16.08 СВ 2 50 км 4/1 1000 м
[Cu Sc Ac trans]
+25.4 +8.0 33 +26 +27 жарко 1015.1 1001.3
17 16.08 С 1 50 км 4/1 1000 м
[Cu Sc Cc]
+23.7 +9.1 39 +24 +25 комфорт 1015.0 1001.1
18 16.08 штиль 0 50 км 6/0
[Ac lent Cs]
+20.9 +10.1 50 +22 +22 комфорт 1015.8 1001.7 +26.5
19 16.08 СВ 2 40 км 6/1 1000 м
[Cu hum Ac lent Cs]
+19.4 +12.0 62 +21 +21 комфорт 1016.7 1002.5
20 16.08 СЗ 2 40 км 4/1 1000 м
[Cu hum Ac cast Ci sp]
+17.6 +12.6 72 +18 +18 1017.1 1002.8
21 16.08 С 2 30 км 9/0
[Ac As Cc]
+16.4 +12.3 77 +17 +17 1017.5 1003.2
22 16.08 штиль 0 30 км 9/6 600 м
[Cu Sc Ac As]
+16.2 +12.5 79 +16 +16 1017.8 1003.5
23 16.08 штиль 0 30 км 9/6 600 м
[Cu Sc Ac trans Ci fib]
+16.7 +13.2 80 +17 +17 1017.6 1003.4
00 17.08 штиль 0 30 км 6/0
[Ac trans Cc]
+15.8 +13.1 84 +16 +16 1017.5 1003.2
01 17.08 штиль 0 30 км 9/6 1000 м
[Sc Ac trans]
+15.4 +13.0 86 +15 +15 1017.5 1003.2
02 17.08 штиль 0 40 км 9/9 1000 м
[Sc]
+15.6 +13.4 87 +15 +15 1017.4 1003.1
03 17.08 штиль 0 40 км 9/9 1000 м
[Sc]
+16.0 +13.8 87 +16 +16 1017.5 1003.2
04 17.08 штиль 0 50 км 6/1 1000 м
[Cu hum Ac und]
+15.9 +13.4 85 +16 +16 1017.6 1003.3
05 17.08 штиль 0 50 км 9/6 1000 м
[Cu Sc Ac As]
+16.1 +13.8 86 +16 +16 1017.8 1003.5
06 17.08 С 2 50 км 5/5 1000 м
[Cu med, cong]
+18.7 +14.5 77 +20 +22 1018.2 1004.0 +14.8
07 17.08 С 2 50 км 1/1 1000 м
[Cu hum]
+21.1 +14.6 66 +24 +30 комфорт 1018.2 1004.2
08 17.08 С 2 50 км 3/3 1000 м
[Cu hum]
+23.2 +14.5 58 +27 +34 душно 1018.2 1004.2
09 17.08 С 2 50 км 4/4 1000 м
[Cu med, cong]
+25.0 +14.6 52 +28 +36 жарко 1018.1 1004.2
10 17.08 В 2 50 км 4/4 600 м
[Cu med, cong]
+25.5 +13.0 46 +27 +37 жарко 1017.8 1003.9
11 17.08 В 1 40 км 5/5 600 м
[Cu med, cong]
+25.3 +12.7 46 +27 +36 жарко 1017.2 1003.3
12 17.08 СВ 1 40 км 5/5 600 м
[Cu med, cong]
+26.0 +13.6 46 +28 +36 жарко 1016.6 1002.8
13 17.08 СВ 1 40 км 6/4 1000 м
[Cu med, cong Ci fib]
+26.3 +12.8 43 +28 +35 жарко 1016.1 1002.4
14 17.08 В 3 40 км 6/3 1000 м
[Cu hum Ci fib]
+27.1 +12.7 41 +29 +33 жарко 1015.8 1002.1
15 17.08 СВ 1 40 км 8/3 1000 м
[Cu hum Cs]
+26.5 +12.9 43 +28 +31 жарко 1015.6 1001.9
16 17.08 СВ 2 40 км 8/1 1000 м
[Cu hum Ac trans Ci sp]
+25.9 +12.9 45 +28 +29 жарко 1015.6 1001.8
17 17.08 В 2 40 км 4/1 1000 м
[Cu hum Ac lent Ci fib]
+25.5 +13.8 48 +28 +28 жарко 1015.7 1001.8
18 17.08 В 1 40 км 1/0
[Ci sp]
+22.1 +12.2 53 +24 +24 комфорт 1015.7 1001.7 +27.4
19 17.08 штиль 0 40 км 1/0
[Ci sp]
+19.4 +12.8 66 +21 +21 комфорт 1016.2 1002.1
20 17.08 штиль 0 40 км 1/0
[Ci fib]
+17.6 +12.9 74 +18 +18 1016.7 1002.5
21 17.08 штиль 0 30 км 1/0
[Ac trans Ci fib]
+16.0 +13.3 84 +16 +16 1016.8 1002.5
22 17.08 штиль 0 30 км 1/0
[Ac lent]
+15.1 +13.1 88 +15 +15 1016.9 1002.6
23 17.08 штиль 0 30 км 1/0
[Ac lent]
+14.3 +12.8 91 +14 +14 1017.1 1003.7
00 18.08 штиль 0 30 км 1/0
[Ac lent]
+13.2 +11.8 91 +13 +13 1017.1 1002.7
01 18.08 штиль 0 30 км ясно +12.4 +11.1 92 +12 +12 1017.1 1002.6
02 18.08 штиль 0 30 км 1/0
[Ci fib]
+12.0 +10.9 93 +11 +11 1017.1 1002.5
03 18.08 штиль 0 30 км 1/0
[Ci fib]
+11.4 +10.5 94 +11 +11 1017.1 1002.5
04 18.08 штиль 0 30 км 1/0
[Ac trans]
+10.8 +10.1 95 +10 +10 1017.4 1002.8
05 18.08 штиль 0 40 км 1/0
[Ci fib]
+12.1 +11.5 96 +11 +13 1017.4 1002.9
06 18.08 штиль 0 30 км 1/0
[Ci fib]
+16.6 +12.6 77 +17 +21 1017.5 1003.2 +10.5
07 18.08 В 1 45 км 1/0
[Ci fib]
+20.6 +14.2 67 +24 +32 комфорт 1017.3 1003.2
08 18.08 В 1 45 км 1/1 1000 м
[Cu hum Ci fib]
+24.6 +14.9 55 +27 +38 жарко 1017.1 1003.2
09 18.08 В 1 45 км 4/1 1000 м
[Cu hum Ci fib]
+26.7 +12.9 42 +28 +42 жарко 1016.9 1003.2
10 18.08 В 1 45 км 8/1 1000 м
[Cu hum Ci]
+27.7 +12.5 39 +29 +43 жарко 1016.7 1003.0
11 18.08 В 1 45 км 3/1 1000 м
[Cu hum Ci fib]
+28.5 +12.1 36 +30 +45 жарко 1016.3 1002.7
12 18.08 В 1 55 км 1/0
[Ci fib]
+29.7 +11.6 33 +30 +47 жарко 1015.9 1002.3
13 18.08 В 1 55 км 1/0
[Ci fib]
+30.1 +11.1 31 +30 +43 жарко 1015.7 1002.1
14 18.08 СВ 1 55 км ясно +30.9 +10.3 28 +31 +40 жарко 1015.3 1001.8
15 18.08 СВ 1 60 км ясно +31.2 +8.8 25 +30 +35 жарко 1015.2 1001.7
16 18.08 ЮВ 1 60 км ясно +29.9 +9.7 28 +30 +31 жарко 1015.2 1001.7
17 18.08 В 1 60 км ясно +28.4 +10.2 32 +29 +29 жарко 1015.3 1001.6
18 18.08 СВ 1 60 км ясно +24.9 +9.9 39 +26 +26 жарко 1015.5 1001.6 +31.4
19 18.08 штиль 0 60 км ясно +23.0 +9.4 42 +25 +25 комфорт 1015.9 1002.0
20 18.08 штиль 0 50 км ясно +20.1 +11.9 59 +22 +22 комфорт 1016.4 1002.3
21 18.08 штиль 0 50 км ясно +18.4 +12.6 69 +19 +19 1016.6 1002.4
22 18.08 штиль 0 40 км ясно +17.7 +12.7 73 +18 +18 1016.7 1002.5
23 18.08 штиль 0 40 км ясно +15.8 +12.4 80 +16 +16 1017.0 1002.7
00 19.08 штиль 0 30 км ясно +15.2 +12.3 83 +15 +15 1016.8 1002.5
01 19.08 штиль 0 30 км ясно +14.1 +12.0 87 +14 +14 1016.8 1002.4
02 19.08 штиль 0 30 км ясно +13.5 +11.8 89 +13 +13 1016.8 1002.4
03 19.08 штиль 0 30 км ясно +12.8 +11.4 91 +12 +12 1017.1 1002.6
04 19.08 штиль 0 40 км 1/0
[Ci fib]
+12.5 +11.6 94 +12 +12 1017.3 1002.8
05 19.08 штиль 0 50 км 3/0
[Ci fib]
+14.1 +11.8 86 +14 +15 1017.5 1003.1
06 19.08 СВ 1 50 км 3/0
[Ci fib]
+20.0 +12.6 62 +23 +27 комфорт 1017.4 1003.3 +12.3
07 19.08 Ю 1 50 км 1/0
[Ci fib]
+23.6 +13.7 54 +26 +34 жарко 1017.3 1003.4
08 19.08 В 2 50 км ясно +27.3 +14.3 45 +30 +40 душно 1016.9 1003.2
09 19.08 ЮВ 2 60 км ясно +29.4 +13.3 37 +31 +44 жарко 1016.8 1003.2
10 19.08 Ю 1 60 км ясно +31.1 +11.3 30 +31 +49 жарко 1016.5 1003.0
11 19.08 Ю 1 60 км ясно +32.3 +10.3 26 +32 +50 жарко 1016.1 1002.7
12 19.08 ЮЗ 2 60 км ясно +33.1 +10.7 25 +33 +47 жарко 1016.0 1002.5
13 19.08 ЮВ 2 60 км ясно +34.1 +12.0 26 +34 +45 очень
жарко
1015.9 1002.5
14 19.08 ЮВ 1 60 км ясно +34.5 +13.7 29 +35 +44 очень
жарко
1015.7 1002.3
15 19.08 штиль 0 60 км 3/1 1000 м
[Cu hum Ci sp]
+34.3 +12.3 26 +34 +39 очень
жарко
1015.6 1002.3
16 19.08 штиль 0 60 км 1/1 1000 м
[Cu hum]
+33.8 +13.3 29 +35 +36 очень
жарко
1015.6 1002.2
17 19.08 З 1 60 км ясно +32.1 +14.4 34 +34 +34 душно 1015.6 1002.1
18 19.08 СВ 1 50 км ясно +27.9 +13.9 42 +30 +30 жарко 1015.7 1002.0 +34.5
19 19.08 штиль 0 50 км ясно +25.2 +14.0 50 +28 +28 жарко 1016.3 1002.5
20 19.08 В 1 40 км ясно +23.8 +14.1 55 +26 +26 жарко 1016.5 1002.6
21 19.08 З 1 40 км ясно +20.4 +15.0 71 +24 +24 комфорт 1017.0 1002.9
22 19.08 З 1 40 км ясно +19.7 +14.9 74 +23 +23 комфорт 1017.2 1003.1
23 19.08 штиль 0 40 км ясно +19.1 +14.9 77 +20 +20 1017.2 1003.0
00 20.08 З 1 40 км ясно +17.2 +14.6 85 +18 +18 1017.3 1003.1

 

Местоположение метеостанции Смедеревска-Паланка (Сербия): широта 44.37 долгота 20.95 высота над уровнем моря 122 м.

В архиве по умолчанию представлена погода в Смедеревска-Паланке за последнюю неделю. Архивные данные за месяц целиком и за предыдущие месяцы, начиная с января 2011 года, Вы можете получить, выбрав интересующий диапазон дат из раскрывающегося списка и нажав кнопку "Ввод!".


*Определитесь, кто Вы:
робот инопланетянин человек

Внимание! Время в таблицах - всемирное. Для получения местного времени необходимо прибавить поправку, которая равна 1 ч.

Смотрите также архив погоды в соседних городах и на ближайших метеорологических станциях:

Погода в Крагуеваце (Сербия) (38 км)
Погода в Чуприи (Сербия) (60 км)
Погода в Белграде (Сербия) (61 км)
Погода в Велико-Градиште (Сербия) (62 км)
Погода в Молдова-Вече (Румыния) (66 км)
Погода в Белград аэропорту (Сербия) (73 км)
Погода в Банатски-Карловаце (Сербия) (76 км)
Погода в Кралево (Сербия) (77 км)
Погода в Валево (Сербия) (82 км)
Погода на Црни Врх (Сербия) (84 км)

Пояснения к столбцам:

Ветер - указаны скорость ветра в м/с - средняя за 10 мин, порывы в срок и между сроками (в фигурных скобках) и направление, откуда дует ветер: С - северный, СВ - северо-восточный, В - восточный, ЮВ - юго-восточный, Ю - южный, ЮЗ - юго-западный, З - западный, СЗ - северо-западный.
Видимость - горизонтальная дальность видимости в метрах или километрах. При видимости от 1 до 10 км при отсутствии осадков обычно наблюдается дымка, при ухудшении видимости до 1 км и менее - туман. В сухую погоду видимость может ухудшаться дымом, пылью или мглою.
Явления - указаны атмосферные явления, наблюдавшиеся в срок или в последний час перед сроком; фигурными скобками обозначены явления, наблюдавшиеся между сроками (за 1-3 часа до срока); квадратными скобками обозначены град или гололедные отложения с указанием их диаметра в мм.
Облачность - указаны через наклонную черту общая и нижняя облачность в баллах и высота нижней границы облаков в метрах; квадратными скобками обозначены формы облаков: Ci - перистые, Cs - перисто-слоистые, Cc - перисто-кучевые, Ac - высококучевые, As - высокослоистые, Sc - слоисто-кучевые, Ns - слоисто-дождевые, Cu - кучевые, Cb - кучево-дождевые. Подробнее классификацию облаков см. в Атласе облаков (PDF).
T - Температура воздуха - температура, измеренная на высоте 2 м над землей.
Td - Температура точки росы - температура, при понижении до которой содержащийся в воздухе водяной пар достигнет насыщения.
f - Относительная влажность воздуха - влажноcть воздуха, измеренная на высоте 2 м над землей.
Te - Эффективная температура - температура, которую ощущает одетый по сезону человек в тени. Характеристика душности погоды. При расчете учитывается влияние влажности воздуха и скорости ветра на теплоощущения человека.
Tes - Эффективная температура на солнце - температура, которую ощущает человек, с поправкой на солнечный нагрев. Характеристика знойности погоды. Зависит от высоты солнца над горизонтом, облачности и скорости ветра. Ночью, в пасмурную погоду, а также при ветре 12 м/с и более поправка равна нулю.
P - Атмосферное давление - приведенное к уровню моря атмосферное давление.
Po - Атмосферное давление - измеренное на уровне метеостанции атмосферное давление.
Tmin - Минимальная температура - минимум температуры воздуха на высоте 2 м над землей.
Tmax - Максимальная температура - максимум температуры воздуха на высоте 2 м над землей.
R - Количество осадков - Количество выпавших осадков за период времени, мм. При наведении курсора мыши на число - период времени, за который выпало указанное количество осадков.
R24 - Количество осадков - Количество выпавших осадков за 24 часа, мм.
S - Снежный покров - Высота снежного покрова, см. При наведении курсора мыши на число - состояние снежного покрова и степень покрытия местности в баллах.